Flag for U.S.A. Weather past 2 weeks in Kansas City, Missouri, U.S.A.

Now
73 °F

Mostly cloudy.


Feels Like: 72 °F
Forecast: 69 / 77 °F
Wind: 9 mph from East

Location: Kansas City Downtown Airport

Current Time: Jul 2, 2015 at 5:10:32 PM

Latest Report: Jul 2, 2015 at 3:54 PM


Visibility: 6 mi

Pressure: 29.88 "Hg

Humidity: 84%

Dew point: 68 °F

Location of Kansas CityLocation

Historic Weather in Kansas City — Graph

°F

Kansas City temperature yesterday

Maximum temperature yesterday: 86 °F (at 5:54 PM)
Minimum temperature yesterday: 70 °F (at 3:54 AM)
Average temperature yesterday: 78 °F

Past Weeks' High & Low Weather Summary

 TemperatureHumidityPressure
High97 °F (Jun 20, 3:54 PM)94% (Jun 18, 3:54 AM)30.18 "Hg (Jun 18, 3:54 AM)
Low65 °F (Jun 27, 5:54 AM)35% (Jun 25, 9:54 PM)29.71 "Hg (Jun 20, 7:54 PM)
Average79 °F69%29.90 "Hg
* Reported Jun 17 2:54 PM — Jul 2 2:54 PM, Kansas City, Weather by CustomWeather, © 2015

Note: Actual official high and low records may vary slightly from our data, if they occured in-between our weather recording intervals... More about our weather records

Advertising

Kansas City weather history for previous 24 hours

 ConditionsComfort  
Time TempWeatherWind HumidityBarometerVisibility
2:54 PM
Thu, Jul 2
73 °FOvercast.7 mph81%29.90 "Hg8 mi
1:54 PM72 °FOvercast.8 mph84%29.90 "Hg8 mi
12:54 PM73 °FOvercast.12 mph84%29.90 "Hg10 mi
11:54 AM73 °FOvercast.8 mph84%29.90 "Hg10 mi
10:54 AM73 °FMostly cloudy.9 mph88%29.88 "Hg9 mi
9:54 AM73 °FOvercast.9 mph88%29.88 "Hg7 mi
8:54 AM73 °FOvercast.10 mph84%29.88 "Hg8 mi
7:54 AM73 °FFog.9 mph88%29.86 "Hg6 mi
6:54 AM73 °FFog.9 mph88%29.84 "Hg5 mi
5:54 AM74 °FFog.10 mph88%29.83 "Hg6 mi
4:54 AM74 °FMostly cloudy.10 mph88%29.81 "Hg7 mi
3:54 AM74 °FOvercast.8 mph91%29.81 "Hg10 mi
2:54 AM74 °FPassing clouds.8 mph88%29.80 "Hg10 mi
1:54 AM75 °FPassing clouds.13 mph88%29.80 "Hg10 mi
12:54 AM77 °FOvercast.16 mph85%29.82 "Hg10 mi
12:03 AM77 °FMostly cloudy.13 mph90%29.83 "Hg10 mi
11:54 PM
Wed, Jul 1
78 °FMostly cloudy.12 mph87%29.80 "Hg10 mi
10:54 PM77 °FPassing clouds.8 mph90%29.79 "Hg10 mi
9:54 PM78 °FOvercast.9 mph84%29.78 "Hg10 mi
8:54 PM78 °FMostly cloudy.7 mph76%29.76 "Hg10 mi
7:54 PM80 °FThundershowers. Passing clouds.7 mph85%29.76 "Hg10 mi
6:54 PM81 °FThunderstorms. Cloudy.9 mph85%29.77 "Hg7 mi
6:04 PM85 °FThundershowers. Partly sunny.7 mph70%29.79 "Hg10 mi
5:54 PM86 °FBroken clouds.6 mph70%29.77 "Hg10 mi
Weather by CustomWeather, © 2015

See weather overviewHow to use our weather pages